Location: �terpigny
(49.8910°N, 2.9249°E)
Time: 14:27:39
(UTC+00:00)

NANOSAT C BR1 - Visible Passes

Search period start: 02 July 2022 00:00
Search period end: 12 July 2022 00:00
Orbit: 584 x 601 km, 98.0° (Epoch: 01 July)

Date Brightness Start Highest point End Pass type
(mag) Time Alt. Az. Time Alt. Az. Time Alt. Az.
02 Jul ? 01:21:29 10° NNE 01:25:13 30° E 01:28:37 12° SSE visible
02 Jul ? 02:57:01 10° N 03:00:46 32° WNW 03:04:30 10° SW visible
03 Jul ? 01:30:05 10° NNE 01:34:01 36° E 01:37:25 13° SSE visible
04 Jul ? 01:38:43 10° NNE 01:42:47 44° E 01:46:13 14° S visible
05 Jul ? 01:47:23 10° NNE 01:51:32 54° E 01:55:01 14° S visible
06 Jul ? 01:56:03 10° NNE 02:00:17 66° ESE 02:03:49 14° S visible
07 Jul ? 02:04:46 10° NNE 02:09:01 81° ESE 02:12:36 14° SSW visible
08 Jul ? 00:40:01 10° ENE 00:41:36 12° E 00:43:12 10° ESE visible
08 Jul ? 02:13:29 10° NNE 02:17:44 83° WNW 02:21:23 14° SSW visible
09 Jul ? 00:48:06 10° NE 00:50:26 14° E 00:52:46 10° ESE visible
09 Jul ? 02:22:13 10° N 02:26:26 69° WNW 02:30:10 13° SSW visible
10 Jul ? 00:56:24 10° NE 00:59:15 17° E 01:02:05 10° SE visible
10 Jul ? 02:30:59 10° N 02:35:08 56° WNW 02:38:57 12° SSW visible
11 Jul ? 01:04:49 10° NE 01:08:03 21° E 01:11:08 10° SE visible
11 Jul ? 02:39:45 10° N 02:43:49 46° WNW 02:47:43 11° SW visible
